Location: ????????
(55.7667°N, 37.4833°E)
Time: 01:29:54
(UTC+00:00)

Cosmos 1500 Rocket - Pass Details

Date: 19 May 2025
Orbit: 598 x 623 km, 82.5° (Epoch: 13 June)

Event Time Altitude Azimuth Distance (km) Brightness Sun altitude
Rises 21:07:30 0° 345° (NNW) 2,879 8.8 -14.2°
Reaches altitude 10° 21:09:45 10° 341° (NNW) 1,974 7.4 -14.2°
Maximum altitude 21:14:00 53° 265° (W) 753 3.9 -14.2°
Enters shadow 21:16:35 22° 196° (SSW) 1,342 4.7 -14.2°
